{"data":{"norad_id":43207,"epoch":"2026-09-19T04:02:40.623936Z","epoch_age_seconds":129402,"freshness":"FRESH","line1":"1 43207U 18018A   26262.16852574 -.00000014  00000+0  00000+0 0  9994","line2":"2 43207  56.7373  60.0544 0005723  43.5560 316.5088  1.86231163 58496","mean_motion":1.86231163,"eccentricity":0.0005723,"inclination_deg":56.7373,"raan_deg":60.0544,"arg_perigee_deg":43.556,"mean_anomaly_deg":316.5088,"bstar":0,"rev_number":5849,"period_min":773.23256580855,"perigee_km":21512.064578108,"apogee_km":21544.0059829,"semimajor_km":27906.172280504,"source":"CELESTRAK","updated_at":"2026-09-20T09:00:46.676041Z"}}